DH0GMA Weather Reports


Display with metric or nautical units.
time (UTC)temp
F
wind
direction
speed
MPH
gust
MPH
rain 1hr
in
rain 24hr
in
rain mn
in
humidity
%
barometer
mb
20260901034747 56 186 0.0 0.0 0.00 0.00 0.00 85 1020.8
20260901033746 56 186 0.0 0.0 0.00 0.00 0.00 85 1020.7
20260901032746 55 186 0.0 0.0 0.00 0.00 0.00 84 1020.7
20260901031746 56 186 0.0 0.0 0.00 0.00 0.00 84 1020.7
20260901030746 56 186 0.0 0.0 0.00 0.00 0.00 84 1020.8
20260901025747 56 186 0.0 0.0 0.00 0.00 0.00 83 1020.9
20260901024747 56 186 0.0 0.0 0.00 0.00 0.00 83 1020.7
20260901023747 56 186 0.0 0.0 0.00 0.00 0.00 83 1020.7
20260901022746 57 186 0.0 1.0 0.00 0.00 0.00 83 1020.8
20260901021746 57 186 0.0 0.0 0.00 0.00 0.00 82 1020.7
20260901020746 57 186 0.0 0.0 0.00 0.00 0.00 81 1020.8
20260901015746 58 186 0.0 0.0 0.00 0.01 0.00 80 1020.7
20260901014746 58 186 0.0 0.0 0.00 0.01 0.00 80 1020.7
20260901013745 58 186 0.0 0.0 0.00 0.01 0.00 79 1020.6
20260901012745 59 186 0.0 1.0 0.00 0.01 0.00 79 1020.7
20260901011747 59 186 0.0 3.0 0.00 0.01 0.00 78 1020.6
20260901010747 59 187 0.0 3.0 0.00 0.01 0.00 77 1020.8
20260901005747 60 185 1.0 3.0 0.00 0.13 0.00 77 1020.6
20260901004747 60 193 2.0 3.0 0.00 0.13 0.00 76 1020.5
20260901003747 60 175 1.0 3.0 0.00 0.13 0.00 76 1020.6
20260901002746 60 182 0.0 2.0 0.00 0.13 0.00 76 1020.4
20260901001746 60 181 2.0 3.0 0.00 0.13 0.00 75 1020.4
20260901000746 60 168 1.0 4.0 0.00 0.13 0.00 75 1020.3
20260831235746 61 176 1.0 3.0 0.00 0.13 0.00 75 1020.3
20260831234746 61 174 1.0 2.0 0.00 0.13 0.00 74 1020.3
20260831233747 61 171 1.0 3.0 0.00 0.13 0.00 74 1020.3
20260831232747 61 170 1.0 2.0 0.00 0.13 0.00 73 1020.2
20260831231747 62 170 0.0 2.0 0.00 0.13 0.00 73 1020.2
20260831230747 62 168 1.0 3.0 0.00 0.13 0.00 72 1020.1
20260831225746 62 167 1.0 3.0 0.00 0.13 0.00 71 1020.0
20260831224745 62 163 1.0 3.0 0.00 0.13 0.00 71 1020.1
20260831223746 62 164 1.0 3.0 0.00 0.13 0.00 71 1020.1
20260831222746 62 170 3.0 4.0 0.00 0.13 0.00 70 1020.2
20260831221746 63 192 1.0 3.0 0.00 0.13 0.00 70 1020.1
20260831220746 63 200 2.0 3.0 0.00 0.13 0.00 69 1020.0
20260831215746 63 201 1.0 3.0 0.00 0.13 0.13 68 1020.0
20260831214745 63 199 1.0 3.0 0.00 0.13 0.13 68 1020.1
20260831213745 63 188 1.0 3.0 0.00 0.13 0.13 68 1019.9
20260831212745 63 191 1.0 3.0 0.00 0.13 0.13 69 1019.9
20260831211745 63 141 1.0 2.0 0.00 0.13 0.13 68 1019.9
20260831210747 63 133 2.0 4.0 0.00 0.13 0.13 68 1019.7
20260831205747 63 171 2.0 4.0 0.00 0.13 0.13 67 1019.7
20260831204747 64 181 2.0 3.0 0.00 0.13 0.13 66 1019.7
20260831203746 64 172 2.0 3.0 0.00 0.13 0.13 66 1019.7
20260831202745 64 237 1.0 3.0 0.00 0.13 0.13 65 1019.5
20260831201745 64 227 0.0 3.0 0.00 0.13 0.13 64 1019.4
20260831200745 65 250 2.0 4.0 0.00 0.13 0.13 64 1019.4
20260831195747 65 258 1.0 7.0 0.00 0.13 0.13 63 1019.3
20260831194747 65 189 0.0 4.0 0.00 0.13 0.13 62 1019.3
20260831193747 66 250 2.0 3.0 0.00 0.13 0.13 62 1019.2
20260831192747 67 219 1.0 4.0 0.00 0.13 0.13 61 1019.1
20260831191746 67 308 0.0 4.0 0.00 0.13 0.13 60 1019.0
20260831190746 68 303 3.0 9.0 0.00 0.13 0.13 58 1018.7
20260831185746 68 265 2.0 5.0 0.00 0.13 0.13 57 1018.5
20260831184746 69 214 2.0 10.0 0.00 0.13 0.13 56 1018.2
20260831183746 69 307 3.0 10.0 0.00 0.13 0.13 55 1018.0
20260831182746 69 292 2.0 10.0 0.00 0.13 0.13 55 1017.8
20260831181746 69 137 2.0 4.0 0.00 0.13 0.13 55 1017.7
20260831180746 70 279 1.0 4.0 0.00 0.13 0.13 54 1017.3
20260831175745 71 274 1.0 3.0 0.00 0.13 0.13 53 1017.1
20260831174745 71 281 1.0 5.0 0.00 0.13 0.13 53 1017.0
20260831173745 72 242 1.0 8.0 0.00 0.13 0.13 52 1016.9
20260831172747 73 256 1.0 3.0 0.00 0.13 0.13 51 1016.8
20260831171747 73 294 1.0 6.0 0.00 0.13 0.13 50 1016.7
20260831170747 75 205 2.0 6.0 0.00 0.13 0.13 48 1016.7
20260831165746 75 304 3.0 4.0 0.00 0.13 0.13 48 1016.4
20260831164746 76 259 3.0 5.0 0.00 0.13 0.13 47 1016.3
20260831163746 76 295 4.0 10.0 0.00 0.13 0.13 47 1016.3
20260831162746 76 188 6.0 11.0 0.00 0.13 0.13 46 1016.4
20260831161746 76 232 4.0 12.0 0.00 0.13 0.13 43 1016.1
20260831160746 76 279 2.0 10.0 0.00 0.13 0.13 43 1016.1
20260831155746 76 232 2.0 11.0 0.00 0.13 0.13 44 1016.0
20260831154745 77 220 4.0 11.0 0.00 0.13 0.13 44 1016.0
20260831153745 77 227 5.0 11.0 0.00 0.13 0.13 44 1015.9
20260831152745 77 124 4.0 11.0 0.00 0.13 0.13 44 1015.8
20260831151745 77 276 8.0 14.0 0.00 0.13 0.13 44 1015.9
20260831150745 77 241 3.0 10.0 0.00 0.13 0.13 47 1015.9
20260831145746 77 227 2.0 11.0 0.00 0.13 0.13 48 1016.1
20260831144746 77 148 3.0 8.0 0.00 0.13 0.13 47 1016.1
20260831143746 77 195 2.0 7.0 0.00 0.13 0.13 48 1016.2
20260831142745 78 222 2.0 11.0 0.00 0.13 0.13 50 1016.0
20260831141745 78 196 3.0 15.0 0.00 0.13 0.13 48 1016.1
20260831140745 78 338 3.0 8.0 0.00 0.13 0.13 50 1016.2
20260831135745 78 150 5.0 10.0 0.00 0.13 0.13 49 1016.3
20260831134745 77 153 3.0 8.0 0.00 0.13 0.13 51 1016.2
20260831133747 77 249 1.0 5.0 0.00 0.13 0.13 51 1016.3
20260831132746 77 294 2.0 6.0 0.00 0.13 0.13 51 1016.3
20260831131746 77 218 3.0 9.0 0.00 0.13 0.13 51 1016.3
20260831130746 76 268 1.0 7.0 0.00 0.13 0.13 53 1016.3
20260831125746 76 203 5.0 10.0 0.00 0.13 0.13 51 1016.5
20260831124746 76 156 3.0 11.0 0.00 0.13 0.13 53 1016.5
20260831123746 76 282 4.0 10.0 0.00 0.13 0.13 51 1016.6
20260831122745 76 257 5.0 10.0 0.00 0.13 0.13 53 1016.5
20260831121746 75 160 3.0 11.0 0.00 0.13 0.13 55 1016.5
20260831120746 75 119 2.0 9.0 0.00 0.13 0.13 56 1016.5
20260831115746 74 227 2.0 10.0 0.00 0.13 0.13 55 1016.7
20260831114746 74 261 2.0 5.0 0.00 0.13 0.13 57 1016.7
20260831113746 75 271 3.0 7.0 0.00 0.13 0.13 57 1016.6
20260831112746 74 316 1.0 8.0 0.00 0.13 0.13 58 1016.8
20260831111745 74 251 2.0 6.0 0.00 0.13 0.13 58 1016.7
20260831110745 73 151 4.0 7.0 0.00 0.13 0.13 58 1016.6
20260831105745 73 221 3.0 9.0 0.00 0.13 0.13 59 1016.6
20260831104745 73 247 1.0 11.0 0.00 0.13 0.13 60 1016.7
20260831103745 72 285 3.0 10.0 0.00 0.13 0.13 58 1016.7
20260831102745 72 216 4.0 10.0 0.00 0.13 0.13 62 1016.6
20260831101745 71 176 3.0 10.0 0.00 0.13 0.13 62 1016.6
20260831100745 71 214 3.0 8.0 0.00 0.13 0.13 62 1016.7
20260831095745 71 237 4.0 11.0 0.00 0.13 0.13 63 1016.7
20260831094745 71 269 3.0 9.0 0.00 0.13 0.13 65 1016.6
20260831093745 71 274 3.0 9.0 0.00 0.13 0.13 67 1016.8
20260831092745 71 246 2.0 5.0 0.00 0.13 0.13 69 1016.7
20260831091745 70 241 3.0 9.0 0.00 0.13 0.13 69 1016.7
20260831090745 70 181 5.0 10.0 0.00 0.13 0.13 70 1016.6
20260831085746 69 341 5.0 10.0 0.00 0.13 0.13 71 1016.7
20260831084746 69 97 2.0 8.0 0.00 0.13 0.13 74 1016.6
20260831083746 68 205 2.0 8.0 0.00 0.13 0.13 75 1016.6
20260831082746 68 187 1.0 9.0 0.00 0.13 0.13 78 1016.6
20260831081746 68 159 1.0 7.0 0.00 0.13 0.13 78 1016.5
20260831080746 68 108 1.0 7.0 0.00 0.13 0.13 78 1016.4
20260831075746 67 254 2.0 5.0 0.00 0.13 0.13 81 1016.3
20260831074746 66 114 2.0 10.0 0.00 0.13 0.13 81 1016.3
20260831073746 66 195 1.0 9.0 0.00 0.13 0.13 83 1016.4
20260831072746 65 179 1.0 3.0 0.00 0.13 0.13 86 1016.3
20260831071745 65 258 1.0 7.0 0.00 0.13 0.13 86 1016.3
20260831070745 65 279 2.0 8.0 0.00 0.13 0.13 87 1016.1
20260831065745 65 110 1.0 6.0 0.00 0.13 0.13 89 1016.0
20260831064745 64 294 2.0 8.0 0.00 0.13 0.13 90 1015.9
20260831063745 63 242 2.0 7.0 0.00 0.13 0.13 92 1015.9
20260831062745 63 242 1.0 4.0 0.00 0.13 0.13 92 1015.7
20260831061745 63 243 3.0 7.0 0.00 0.13 0.13 93 1015.7
20260831060746 62 264 3.0 9.0 0.00 0.13 0.13 94 1015.6
20260831055746 62 145 3.0 8.0 0.00 0.13 0.13 94 1015.6
20260831054746 61 136 2.0 6.0 0.00 0.13 0.13 94 1015.7
20260831053746 61 251 3.0 7.0 0.00 0.13 0.13 95 1015.6
20260831052746 61 260 2.0 6.0 0.00 0.13 0.13 94 1015.5
20260831051746 60 237 3.0 5.0 0.00 0.13 0.13 94 1015.4
20260831050746 60 245 2.0 5.0 0.00 0.13 0.13 95 1015.4
20260831045746 60 227 1.0 4.0 0.00 0.13 0.13 95 1015.2
20260831044745 60 209 0.0 2.0 0.00 0.13 0.13 94 1015.3
20260831043745 60 214 0.0 0.0 0.00 0.13 0.13 94 1015.3
20260831042745 60 208 0.0 3.0 0.00 0.13 0.13 94 1015.3
20260831041745 60 141 1.0 4.0 0.00 0.13 0.13 94 1015.2
20260831040745 60 194 3.0 6.0 0.00 0.13 0.13 94 1014.9
20260831035745 60 125 2.0 5.0 0.00 0.13 0.13 94 1015.0